This demonstration page uses our WeatherBlox Daily Observations layout. Learn more.

38.89511, -77.03637

Hourly Observations for July 2, 2017

Temp ( °F °C ) Dew Point ( °F °C ) Humidity (%) Winds ( mph kmh ) Pressure ( in mb ) Visibility ( mi km ) Precip ( " mm )
12:52 am 00:52 Mostly Cloudy 77 25 73 22.8 88 88 SSW 6 9 29.94 1014 10 16.09344 0 0
1:52 am 01:52 Mostly Cloudy 77 25 73 22.8 88 88 S 3 6 29.94 1014 10 16.09344 0 0
2:52 am 02:52 Mostly Cloudy 77 25 73 22.8 88 88 S 3 6 29.94 1014 10 16.09344 0 0
3:52 am 03:52 Mostly Cloudy 77 25 74 23.3 90 90 Calm 29.94 1014 10 16.09344 0 0
4:52 am 04:52 Mostly Cloudy 76 24.4 73 22.8 91 91 Calm 29.97 1015 10 16.09344 0 0
5:52 am 05:52 Partly Cloudy 76 24.4 73 22.8 91 91 S 3 6 29.97 1015 10 16.09344 0 0
6:52 am 06:52 Partly Cloudy 77 25 73 22.8 88 88 WSW 3 6 30 1016 10 16.09344 0 0
7:52 am 07:52 Partly Cloudy 82 27.8 69 20.6 65 65 N 3 6 30.03 1017 10 16.09344 0 0
8:52 am 08:52 Partly Cloudy 84 28.9 69 20.6 61 61 NW 6 9 30.03 1017 10 16.09344 0 0
9:52 am 09:52 Mostly Cloudy 85 29.4 68 20 57 57 N 5 7 30.03 1017 10 16.09344 0 0
10:52 am 10:52 Mostly Cloudy 87 30.6 69 20.6 55 55 NNE 8 13 30.03 1017 10 16.09344 0 0
11:52 am 11:52 Mostly Cloudy 87 30.6 67 19.4 51 51 NNE 5 7 30.03 1017 10 16.09344 0 0
12:52 pm 12:52 Mostly Cloudy 90 32.2 65 18.3 44 44 S 5 7 30.03 1017 10 16.09344 0 0
1:52 pm 13:52 Mostly Cloudy 91 32.8 65 18.3 42 42 W 9 15 30.03 1017 10 16.09344 0 0
2:52 pm 14:52 Mostly Cloudy 92 33.3 64 17.8 40 40 N 7 11 30 1016 10 16.09344 0 0
3:52 pm 15:52 Mostly Cloudy 91 32.8 64 17.8 41 41 N 6 9 29.97 1015 10 16.09344 0 0
4:52 pm 16:52 Cloudy 91 32.8 65 18.3 42 42 S 9 15 29.97 1015 10 16.09344 0 0
5:09 pm 17:09 Mostly Cloudy 92 33.3 66 18.9 43 43 SSW 12 19 29.97 1015 10 16.09344 0 0
5:52 pm 17:52 Mostly Cloudy 90 32.2 66 18.9 45 45 SW 14 22 29.94 1014 10 16.09344 0 0
6:52 pm 18:52 Mostly Cloudy 86 30 69 20.6 57 57 NE 7 11 29.97 1015 10 16.09344 0 0
7:52 pm 19:52 Cloudy 84 28.9 71 21.7 65 65 SE 5 7 29.97 1015 10 16.09344 0 0
8:52 pm 20:52 Cloudy 84 28.9 73 22.8 70 70 S 9 15 29.97 1015 10 16.09344 0 0
9:52 pm 21:52 Mostly Cloudy 83 28.3 72 22.2 70 70 S 6 9 30 1016 10 16.09344 0 0
10:52 pm 22:52 Cloudy 82 27.8 73 22.8 74 74 SSW 8 13 30 1016 10 16.09344 0 0
11:52 pm 23:52 Cloudy 80 26.7 74 23.3 82 82 SW 6 9 30 1016 10 16.09344 0 0

Powered by AerisWeather